User: anonymous   Login
Location: Philomena
(55.1756°N, 111.6233°W)
Time: 17:07:42
(UTC+00:00)
Language:

NORSAT 1 - Orbit

View from above orbital plane
View from above orbital plane
View from above satellite
View from above satellite

Ground track
Ground track

The orbit data is extracted from the following two-line orbital elements,

1 42826U 17042B   24149.50502163  .00004804  00000-0  40149-3 0  9995
2 42826  97.3842 333.3767 0013261 134.5829 225.6480 14.98883868374312
Epoch (UTC): 28 May 2024 12:07:13
Eccentricity: 0.0013261
inclination: 97.3842°
perigee height: 561 km
apogee height: 579 km
right ascension of ascending node: 333.3767°
argument of perigee: 134.5829°
revolutions per day: 14.98883868
mean anomaly at epoch: 225.6480°
orbit number at epoch: 37431

The dashed part of the orbit path shows where the satellite is in the earth's shadow,  

DLR